| time (UTC) | temp F | wind direction | speed MPH | gust MPH | rain 1hr in | rain 24hr in | rain mn in | humidity % | barometer mb |
| 20260509141532 | 52 | 0 | 0.0 | 1.0 | 0.02 | 0.04 | 0.03 | 69 | 1011.3 |
| 20260509140030 | 51 | 0 | 0.0 | 1.0 | 0.02 | 0.04 | 0.03 | 68 | 1011.6 |
| 20260509134530 | 51 | 210 | 0.0 | 1.0 | 0.02 | 0.03 | 0.02 | 69 | 1011.6 |
| 20260509133031 | 52 | 0 | 0.0 | 1.0 | 0.01 | 0.02 | 0.01 | 67 | 1011.1 |
| 20260509131537 | 52 | 0 | 0.0 | 1.0 | 0.01 | 0.02 | 0.01 | 66 | 1011.0 |
| 20260509130053 | 52 | 0 | 0.0 | 1.0 | 0.01 | 0.02 | 0.01 | 66 | 1010.9 |
| 20260509124534 | 51 | 0 | 0.0 | 1.0 | 0.00 | 0.01 | 0.00 | 65 | 1011.0 |
| 20260509123046 | 51 | 227 | 0.0 | 1.0 | 0.00 | 0.01 | 0.00 | 65 | 1011.3 |
| 20260509121540 | 50 | 103 | 0.0 | 1.0 | 0.00 | 0.01 | 0.00 | 65 | 1011.3 |
| 20260509120037 | 49 | 0 | 0.0 | 0.0 | 0.00 | 0.01 | 0.00 | 65 | 1011.5 |
| 20260509114530 | 48 | 0 | 0.0 | 1.0 | 0.00 | 0.01 | 0.00 | 66 | 1011.3 |
| 20260509113045 | 48 | 0 | 0.0 | 0.0 | 0.00 | 0.01 | 0.00 | 67 | 1011.1 |
| 20260509111555 | 48 | 0 | 0.0 | 0.0 | 0.00 | 0.01 | 0.00 | 67 | 1011.2 |
| 20260509110031 | 47 | 0 | 0.0 | 1.0 | 0.00 | 0.01 | 0.00 | 67 | 1011.4 |
| 20260509104531 | 47 | 128 | 0.0 | 1.0 | 0.00 | 0.01 | 0.00 | 67 | 1011.0 |
| 20260509103142 | 46 | 0 | 0.0 | 1.0 | 0.00 | 0.01 | 0.00 | 67 | 1010.7 |
| 20260509101545 | 46 | 0 | 0.0 | 0.0 | 0.00 | 0.01 | 0.00 | 67 | 1010.6 |
| 20260509100028 | 46 | 0 | 0.0 | 0.0 | 0.00 | 0.01 | 0.00 | 67 | 1010.9 |
| 20260509094533 | 46 | 0 | 0.0 | 0.0 | 0.00 | 0.01 | 0.00 | 67 | 1011.0 |
| 20260509093034 | 46 | 0 | 0.0 | 0.0 | 0.00 | 0.01 | 0.00 | 67 | 1011.0 |
| 20260509091531 | 46 | 0 | 0.0 | 0.0 | 0.00 | 0.01 | 0.00 | 67 | 1011.0 |
| 20260509090032 | 46 | 0 | 0.0 | 0.0 | 0.00 | 0.01 | 0.00 | 67 | 1011.2 |
| 20260509084531 | 46 | 0 | 0.0 | 0.0 | 0.00 | 0.01 | 0.00 | 66 | 1011.2 |
| 20260509083030 | 46 | 0 | 0.0 | 0.0 | 0.00 | 0.01 | 0.00 | 66 | 1011.5 |
| 20260509081528 | 46 | 0 | 0.0 | 0.0 | 0.00 | 0.01 | 0.00 | 67 | 1011.5 |
| 20260509080030 | 46 | 0 | 0.0 | 0.0 | 0.00 | 0.01 | 0.00 | 68 | 1011.7 |
| 20260509074530 | 46 | 0 | 0.0 | 0.0 | 0.00 | 0.01 | 0.00 | 68 | 1011.6 |
| 20260509073031 | 47 | 0 | 0.0 | 0.0 | 0.00 | 0.01 | 0.00 | 68 | 1011.7 |
| 20260509071530 | 47 | 0 | 0.0 | 0.0 | 0.00 | 0.01 | 0.00 | 68 | 1011.6 |
| 20260509070028 | 47 | 0 | 0.0 | 1.0 | 0.00 | 0.01 | 0.00 | 68 | 1011.9 |
| 20260509064528 | 47 | 0 | 0.0 | 0.0 | 0.00 | 0.01 | 0.00 | 70 | 1012.0 |
| 20260509063034 | 48 | 0 | 0.0 | 0.0 | 0.00 | 0.01 | 0.00 | 70 | 1012.0 |
| 20260509061531 | 48 | 0 | 0.0 | 1.0 | 0.00 | 0.01 | 0.00 | 70 | 1011.9 |
| 20260509060031 | 48 | 0 | 0.0 | 0.0 | 0.00 | 0.01 | 0.00 | 70 | 1011.7 |
| 20260509054537 | 48 | 0 | 0.0 | 0.0 | 0.00 | 0.04 | 0.00 | 71 | 1011.7 |
| 20260509053032 | 48 | 0 | 0.0 | 0.0 | 0.00 | 0.04 | 0.00 | 71 | 1012.1 |
| 20260509051531 | 48 | 0 | 0.0 | 0.0 | 0.00 | 0.04 | 0.00 | 71 | 1012.7 |
| 20260509050031 | 48 | 0 | 0.0 | 0.0 | 0.00 | 0.04 | 0.00 | 70 | 1012.9 |
| 20260509044529 | 48 | 0 | 0.0 | 0.0 | 0.00 | 0.04 | 0.00 | 70 | 1012.9 |
| 20260509043028 | 48 | 0 | 0.0 | 1.0 | 0.00 | 0.04 | 0.00 | 70 | 1012.6 |
| 20260509041530 | 48 | 0 | 0.0 | 0.0 | 0.00 | 0.04 | 0.00 | 70 | 1012.3 |
| 20260509040044 | 48 | 0 | 0.0 | 0.0 | 0.00 | 0.04 | 0.00 | 70 | 1012.0 |
| 20260509034530 | 48 | 0 | 0.0 | 0.0 | 0.00 | 0.04 | 0.04 | 70 | 1012.2 |
| 20260509033030 | 48 | 0 | 0.0 | 0.0 | 0.00 | 0.04 | 0.04 | 69 | 1012.2 |
| 20260509031532 | 47 | 0 | 0.0 | 0.0 | 0.00 | 0.04 | 0.04 | 69 | 1012.6 |
| 20260509030030 | 47 | 0 | 0.0 | 0.0 | 0.00 | 0.04 | 0.04 | 69 | 1012.7 |
| 20260509024542 | 47 | 0 | 0.0 | 0.0 | 0.00 | 0.04 | 0.04 | 70 | 1012.3 |
| 20260509023030 | 47 | 0 | 0.0 | 0.0 | 0.00 | 0.04 | 0.04 | 68 | 1012.4 |
| 20260509021529 | 47 | 0 | 0.0 | 0.0 | 0.00 | 0.04 | 0.04 | 67 | 1012.5 |
| 20260509020030 | 48 | 0 | 0.0 | 0.0 | 0.00 | 0.04 | 0.04 | 65 | 1012.4 |
| 20260509014539 | 50 | 0 | 0.0 | 0.0 | 0.00 | 0.04 | 0.04 | 62 | 1012.3 |
| 20260509013035 | 52 | 0 | 0.0 | 0.0 | 0.00 | 0.04 | 0.04 | 58 | 1012.1 |
| 20260509011532 | 53 | 0 | 0.0 | 0.0 | 0.00 | 0.04 | 0.04 | 55 | 1011.8 |
| 20260509010031 | 54 | 0 | 0.0 | 0.0 | 0.00 | 0.04 | 0.04 | 54 | 1011.7 |
| 20260509004532 | 54 | 0 | 0.0 | 0.0 | 0.00 | 0.04 | 0.04 | 53 | 1011.7 |
| 20260509003109 | 55 | 0 | 0.0 | 0.0 | 0.00 | 0.04 | 0.04 | 53 | 1011.7 |
| 20260509001557 | 55 | 0 | 0.0 | 1.0 | 0.00 | 0.04 | 0.04 | 51 | 1011.4 |
| 20260509000029 | 56 | 216 | 0.0 | 1.0 | 0.00 | 0.04 | 0.04 | 52 | 1011.2 |
| 20260508234530 | 57 | 0 | 0.0 | 1.0 | 0.00 | 0.04 | 0.04 | 49 | 1010.9 |
| 20260508233030 | 57 | 0 | 0.0 | 1.0 | 0.00 | 0.04 | 0.04 | 47 | 1010.7 |
| 20260508231559 | 58 | 0 | 0.0 | 1.0 | 0.00 | 0.04 | 0.04 | 46 | 1010.6 |
| 20260508230128 | 59 | 0 | 0.0 | 1.0 | 0.00 | 0.04 | 0.04 | 44 | 1010.6 |
| 20260508224531 | 59 | 0 | 0.0 | 2.0 | 0.00 | 0.04 | 0.04 | 42 | 1010.5 |
| 20260508223034 | 60 | 0 | 0.0 | 1.0 | 0.00 | 0.04 | 0.04 | 41 | 1010.4 |
| 20260508221530 | 60 | 26 | 0.0 | 1.0 | 0.00 | 0.04 | 0.04 | 43 | 1010.4 |
| 20260508220105 | 60 | 185 | 0.0 | 1.0 | 0.00 | 0.04 | 0.04 | 41 | 1010.2 |
| 20260508214532 | 60 | 145 | 1.0 | 5.0 | 0.00 | 0.04 | 0.04 | 40 | 1010.5 |
| 20260508213035 | 61 | 0 | 0.0 | 7.0 | 0.00 | 0.04 | 0.04 | 41 | 1010.6 |
| 20260508211534 | 60 | 225 | 0.0 | 4.0 | 0.00 | 0.04 | 0.04 | 42 | 1010.7 |
| 20260508210035 | 63 | 210 | 0.0 | 5.0 | 0.00 | 0.04 | 0.04 | 37 | 1010.4 |
| 20260508204534 | 63 | 198 | 0.0 | 6.0 | 0.00 | 0.04 | 0.04 | 40 | 1010.5 |
| 20260508203245 | 62 | 286 | 0.0 | 3.0 | 0.00 | 0.04 | 0.04 | 44 | 1010.6 |
| 20260508201534 | 61 | 204 | 1.0 | 9.0 | 0.00 | 0.04 | 0.04 | 42 | 1010.9 |
| 20260508200038 | 62 | 0 | 0.0 | 4.0 | 0.01 | 0.04 | 0.04 | 42 | 1010.9 |
| 20260508191649 | 56 | 0 | 0.0 | 4.0 | 0.01 | 0.04 | 0.04 | 47 | 1011.7 |
| 20260508184540 | 57 | 92 | 0.0 | 2.0 | 0.00 | 0.03 | 0.03 | 48 | 1011.6 |
| 20260508183030 | 57 | 219 | 0.0 | 4.0 | 0.00 | 0.03 | 0.03 | 46 | 1011.7 |
| 20260508181538 | 57 | 231 | 1.0 | 6.0 | 0.00 | 0.03 | 0.03 | 46 | 1011.8 |
| 20260508180028 | 58 | 250 | 2.0 | 6.0 | 0.00 | 0.03 | 0.03 | 40 | 1011.5 |
| 20260508174536 | 60 | 252 | 1.0 | 5.0 | 0.00 | 0.03 | 0.03 | 35 | 1011.3 |
| 20260508173029 | 62 | 351 | 1.0 | 5.0 | 0.00 | 0.03 | 0.03 | 37 | 1011.2 |
| 20260508171528 | 60 | 113 | 1.0 | 3.0 | 0.00 | 0.03 | 0.03 | 36 | 1011.4 |
| 20260508170030 | 60 | 0 | 1.0 | 5.0 | 0.00 | 0.03 | 0.03 | 37 | 1011.3 |
| 20260508164527 | 58 | 176 | 1.0 | 7.0 | 0.00 | 0.03 | 0.03 | 38 | 1011.8 |
| 20260508163036 | 58 | 261 | 1.0 | 5.0 | 0.00 | 0.03 | 0.03 | 43 | 1012.0 |
| 20260508161534 | 57 | 94 | 1.0 | 4.0 | 0.00 | 0.03 | 0.03 | 41 | 1012.2 |
| 20260508160031 | 57 | 221 | 1.0 | 6.0 | 0.00 | 0.03 | 0.03 | 45 | 1012.3 |
| 20260508154529 | 56 | 0 | 1.0 | 4.0 | 0.00 | 0.03 | 0.03 | 47 | 1012.5 |
| 20260508153028 | 56 | 246 | 1.0 | 4.0 | 0.00 | 0.03 | 0.03 | 43 | 1012.6 |
| 20260508151528 | 54 | 187 | 0.0 | 3.0 | 0.00 | 0.03 | 0.03 | 49 | 1012.9 |
| 20260508150034 | 52 | 246 | 2.0 | 4.0 | 0.00 | 0.03 | 0.03 | 50 | 1013.1 |
| 20260508144531 | 50 | 0 | 0.0 | 1.0 | 0.00 | 0.03 | 0.03 | 55 | 1013.0 |
| 20260508143030 | 49 | 248 | 0.0 | 3.0 | 0.00 | 0.03 | 0.03 | 56 | 1013.3 |